Retour au catalogue

STARLINK-11379

ActifCommunicationsVLEO
NORAD 62089·PAYLOAD·🇺🇸 United States

Lancé Nov 25, 2024 depuis Cape Canaveral Space Force Station

Loading…

Prochains Passages (prochaines 24 heures)

TLE

FraisSource: CelesTrak SupGP

Époque: Sep 14, 2026, 21:03 UTC

1 62089C 24220B   26257.87756944 -.00040517  00000+0 -31460-3 0  2579
2 62089  43.0003 343.0107 0001752 261.5518 117.8285 15.70864996    16

Suivez STARLINK-11379 en temps réel avec AllMySat

Download on the App Store